Location: Joplin, MO
(37.0842°N, 94.5133°W)
Time: 10:04:06
(UTC+02:00)

Transit 2A - Pass Details

Date: 30 March 2023
Orbit: 591 x 964 km, 66.7° (Epoch: 03 June)

Event Time Altitude Azimuth Distance (km) Brightness Sun altitude
Exits shadow 10:39:04 18° 91° (E) 1,919 8.4 -38.3°
Drops below altitude 10° 10:41:55 10° 61° (ENE) 2,466 9.3 -37.9°
Sets 10:45:14 0° 44° (NE) 3,478 10.4 -37.4°
